Mitchell Lake Weather Center

Moon Phase Calendar



Mitchell Lake Water Level
Online Cameras

 


      

Current Conditions in Clanton
2/2/2023 3:29:21 PM

47°F
Feels Like 46
Rain
Humidity
96%
Pressure
30.09"
Wind
3.5 mph (NNE)
Dew Point
46°F
UV Index
0/10 (Low)
Visibility
3 mi

Hourly Forecast

Date & Time Thu, Feb 2
3:00 PM
Thu, Feb 2
4:00 PM
Thu, Feb 2
5:00 PM
Thu, Feb 2
6:00 PM
Thu, Feb 2
7:00 PM
Thu, Feb 2
8:00 PM
Thu, Feb 2
9:00 PM
Thu, Feb 2
10:00 PM
Thu, Feb 2
11:00 PM
Fri, Feb 3
12:00 AM
Fri, Feb 3
1:00 AM
Fri, Feb 3
2:00 AM
Fri, Feb 3
3:00 AM
Fri, Feb 3
4:00 AM
Fri, Feb 3
5:00 AM
Fri, Feb 3
6:00 AM
Fri, Feb 3
7:00 AM
Fri, Feb 3
8:00 AM
Fri, Feb 3
9:00 AM
Fri, Feb 3
10:00 AM
Fri, Feb 3
11:00 AM
Fri, Feb 3
12:00 PM
Fri, Feb 3
1:00 PM
Fri, Feb 3
2:00 PM
Fri, Feb 3
3:00 PM
Fri, Feb 3
4:00 PM
Fri, Feb 3
5:00 PM
Fri, Feb 3
6:00 PM
Fri, Feb 3
7:00 PM
Fri, Feb 3
8:00 PM
Fri, Feb 3
9:00 PM
Fri, Feb 3
10:00 PM
Fri, Feb 3
11:00 PM
Sat, Feb 4
12:00 AM
Sat, Feb 4
1:00 AM
Sat, Feb 4
2:00 AM
Sat, Feb 4
3:00 AM
Sat, Feb 4
4:00 AM
Sat, Feb 4
5:00 AM
Sat, Feb 4
6:00 AM
Sat, Feb 4
7:00 AM
Sat, Feb 4
8:00 AM
Sat, Feb 4
9:00 AM
Sat, Feb 4
10:00 AM
Sat, Feb 4
11:00 AM
Sat, Feb 4
12:00 PM
Sat, Feb 4
1:00 PM
Sat, Feb 4
2:00 PM
Condition
Rain

Rain

Rain

Rain

Rain

Rain

Rain

Rain

Rain

Rain

Rain

Rain

Rain

Clouds

Clouds

Clouds

Clouds

Clouds

Clouds

Clouds

Clouds

Clouds

Clear

Clear

Clear

Clear

Clear

Clear

Clear

Clear

Clear

Clear

Clear

Clear

Clear

Clear

Clear

Clear

Clear

Clear

Clear

Clear

Clear

Clear

Clear

Clear

Clouds

Clouds
Temperature 47°F47°F47°F47°F47°F46°F46°F46°F45°F45°F44°F44°F43°F42°F40°F39°F38°F39°F41°F44°F47°F49°F50°F50°F50°F48°F44°F41°F39°F37°F36°F35°F34°F33°F33°F32°F32°F32°F32°F32°F32°F37°F43°F47°F51°F54°F55°F56°F
Feels Like 46°F45°F44°F43°F42°F42°F42°F41°F41°F40°F39°F39°F37°F36°F34°F32°F32°F32°F34°F38°F41°F44°F45°F47°F45°F44°F39°F36°F33°F32°F30°F29°F29°F28°F28°F27°F27°F27°F28°F28°F29°F33°F39°F44°F48°F51°F53°F53°F
Cloudiness 100%100%100%100%100%100%100%100%100%100%100%100%100%100%100%97%100%56%39%29%23%20%2%3%2%2%1%1%0%0%0%0%0%0%0%1%1%0%0%0%0%0%0%0%1%3%32%56%
Visibility 3 mi2 mi1 mi4 mi6 mi6 mi6 mi6 mi3 mi4 mi5 mi6 mi6 mi6 mi6 mi6 mi6 mi6 mi6 mi6 mi6 mi6 mi6 mi6 mi6 mi6 mi6 mi6 mi6 mi6 mi6 mi6 mi6 mi6 mi6 mi6 mi6 mi6 mi6 mi6 mi6 mi6 mi6 mi6 mi6 mi6 mi6 mi6 mi
Precipitation 82%92%94%100%100%100%100%100%100%100%94%92%92%72%88%83%0%0%0%0%0%0%0%0%0%0%0%0%0%0%0%0%0%0%0%0%0%0%0%0%0%0%0%0%0%0%0%0%
Humidity 96%97%97%98%97%97%96%97%97%97%96%94%92%89%87%86%83%81%72%63%57%53%52%51%51%56%60%65%69%71%73%74%75%75%76%76%75%72%70%67%65%56%50%47%46%44%44%44%
Dew Point 46°F47°F46°F46°F46°F45°F44°F44°F44°F44°F43°F42°F40°F38°F36°F34°F33°F33°F33°F32°F32°F32°F32°F33°F32°F33°F31°F30°F29°F28°F28°F27°F26°F26°F25°F25°F24°F23°F23°F22°F22°F23°F25°F28°F30°F32°F33°F34°F
Pressure 30.09"30.09"30.09"30.12"30.12"30.15"30.15"30.12"30.15"30.15"30.15"30.18"30.15"30.18"30.21"30.24"30.27"30.3"30.33"30.36"30.36"30.36"30.33"30.33"30.33"30.36"30.39"30.42"30.45"30.45"30.45"30.47"30.47"30.45"30.45"30.47"30.47"30.47"30.47"30.47"30.5"30.47"30.47"30.47"30.45"30.42"30.39"30.36"
Wind Speed 3.5 mph4.7 mph6.4 mph7.8 mph8.9 mph7.8 mph8.6 mph8.1 mph7.5 mph8.8 mph9.4 mph8.2 mph10.1 mph8 mph10.5 mph9.8 mph9.7 mph10.2 mph11.7 mph11.5 mph11.9 mph11.6 mph11.4 mph11.3 mph11.2 mph9.9 mph9.3 mph8 mph7.6 mph7.1 mph7 mph6.7 mph6.1 mph5.4 mph5.1 mph4.7 mph4.3 mph4.3 mph3.7 mph3.7 mph3.8 mph5.8 mph6.5 mph6.4 mph6 mph6.9 mph7.1 mph6.8 mph
Wind
Direction
31°
NNE

N
10°
N
18°
NNE
358°
N
356°
N
10°
N
18°
NNE
355°
N
359°
N
352°
N
346°
NNW
360°
N

N
347°
NNW
346°
NNW
348°
NNW
353°
N
358°
N

N
355°
N
353°
N
353°
N
354°
N
354°
N
351°
N
351°
N
353°
N
353°
N
355°
N

N

N

N

N
13°
NNE
18°
NNE
23°
NNE
35°
NE
68°
ENE
83°
E
71°
ENE
90°
E
109°
ESE
124°
SE
138°
SE
139°
SE
150°
SSE
151°
SSE

Daily Forecast

Date High Low Precip. Humidity
Today
Feb 2

Rain
48 °F
45 °F
100%
92%
Friday
Feb 3

Rain
50 °F
34 °F
100%
57%
Saturday
Feb 4

Clear
56 °F
32 °F
0%
46%
Sunday
Feb 5

Clouds
61 °F
44 °F
0%
74%
Monday
Feb 6

Clouds
66 °F
46 °F
0%
53%
Tuesday
Feb 7

Clouds
70 °F
57 °F
0%
62%
Wednesday
Feb 8

Clouds
72 °F
54 °F
0%
60%
Thursday
Feb 9

Rain
71 °F
57 °F
100%
81%
Friday
Feb 10

Rain
65 °F
59 °F
100%
96%
Saturday
Feb 11

Rain
58 °F
37 °F
100%
64%
Sunday
Feb 12

Clear
51 °F
30 °F
0%
34%
Monday
Feb 13

Clear
58 °F
34 °F
0%
41%
Tuesday
Feb 14

Clouds
61 °F
37 °F
0%
47%
Wednesday
Feb 15

Clouds
67 °F
48 °F
0%
62%
Thursday
Feb 16

Rain
64 °F
58 °F
100%
87%
Friday
Feb 17

Rain
75 °F
63 °F
96%
86%

Temperature 8-14 Day Outlook



Precipitation 8-14 Day Outlook




Quick Links
Mitchell Lake News
Mitchell Lake Photos
Mitchell Lake Videos




About Us
Contact Us
Site Map
Search Site
Advertise With Us
   
www.LakeMitchell.com
THE MITCHELL LAKE WEBSITE

Copyright 2023, Lakes Online
Privacy    |    Legal